Snowfall_Accumulation
0.9 0.9 1.1 1.0 1.0 1.2 1.7 2.8 5.1 4.5 1.4 0.3 0.4 0.3 0.5 0.4 0.3 0.5 0.3 0.2 0.3 0.4 0.5 0.4 0.3 0.2 0.2 0.1 0.1 0.0 0.0 0.0 0.1 0.1 0.0 0.1 0.1 0.0
1.1 1.2 1.2 1.2 1.2 1.2 1.5 1.8 3.1 5.6 4.2 0.7 0.4 0.3 0.4 0.5 0.4 0.6 0.5 0.2 0.3 0.3 0.3 0.5 0.3 0.2 0.2 0.1 0.1 0.1 0.0 0.0 0.1 0.1 0.1 0.0 0.1 0.1
1.2 1.5 1.6 1.5 1.5 1.4 1.6 1.8 2.3 3.8 5.2 1.3 0.3 0.3 0.5 0.6 0.5 0.5 0.4 0.3 0.4 0.2 0.2 0.3 0.3 0.3 0.3 0.2 0.2 0.1 0.1 0.1 0.1 0.1 0.1 0.1 0.1 0.1
1.6 1.8 1.8 1.8 2.1 1.8 2.1 2.2 2.3 3.0 4.6 3.5 0.9 0.6 0.6 0.5 0.4 0.4 0.3 0.3 0.4 0.2 0.2 0.3 0.4 0.4 0.4 0.5 0.2 0.2 0.2 0.1 0.1 0.1 0.1 0.1 0.1 0.1
1.9 2.3 2.3 2.6 2.9 2.4 2.6 2.7 2.4 2.3 3.0 3.9 2.2 1.0 0.8 0.6 0.6 0.7 0.5 0.6 0.3 0.2 0.2 0.2 0.3 0.5 0.5 0.5 0.5 0.3 0.3 0.3 0.2 0.2 0.3 0.2 0.2 0.1
2.3 2.6 3.2 3.7 4.3 4.5 4.2 3.8 3.0 3.4 3.5 4.3 3.6 2.2 1.7 1.1 1.6 1.8 1.7 1.0 0.9 0.8 0.8 0.4 0.6 0.6 0.6 0.5 0.4 0.5 0.5 0.5 0.5 0.4 0.4 0.4 0.4 0.3
3.4 3.1 2.9 3.4 4.1 5.2 6.2 6.4 6.1 7.0 6.3 6.4 5.6 4.1 3.2 3.1 3.2 2.5 2.9 1.9 1.3 1.1 1.2 0.8 0.6 0.6 0.6 0.3 0.3 0.3 0.8 0.7 0.6 0.7 0.5 0.4 0.4 0.4
4.8 3.8 3.1 2.8 3.0 2.9 3.8 4.6 5.5 8.4 9.5 9.5 8.8 7.7 5.1 3.4 3.4 3.7 4.6 5.1 4.3 1.4 1.6 1.8 1.3 1.5 0.9 0.8 0.4 0.5 0.7 0.8 0.9 0.9 0.7 0.7 0.7 0.7
4.0 3.5 3.3 2.8 2.8 2.9 3.3 2.6 3.0 3.9 6.2 8.6 11.1 8.7 6.1 5.2 5.4 6.1 5.7 6.4 5.0 2.8 2.9 3.9 1.8 2.0 1.4 1.0 0.6 0.6 0.6 1.1 1.1 1.0 1.1 1.0 1.1 0.9
3.1 3.4 3.7 3.5 3.2 3.9 4.5 4.8 4.3 4.0 4.7 6.6 9.0 7.6 6.1 5.8 6.5 8.5 8.1 8.3 5.1 2.9 2.9 6.0 2.5 2.1 1.4 1.2 0.8 0.7 0.9 1.0 1.4 1.3 1.3 1.3 1.4 1.3
3.0 4.0 4.4 4.3 4.1 4.6 6.5 7.1 5.3 4.0 3.2 4.5 5.6 6.4 5.5 5.9 8.1 10.9 14.4 15.3 12.2 4.9 3.4 5.8 3.5 2.6 1.8 1.7 1.2 1.1 1.1 1.0 1.0 1.3 1.3 1.6 1.7 1.6
3.1 3.9 5.9 5.8 5.6 5.3 7.1 8.3 8.0 4.9 4.2 4.1 4.4 4.4 4.6 5.2 6.2 9.5 12.4 16.4 15.0 10.9 5.2 5.1 5.0 6.1 6.2 2.6 1.7 1.3 1.4 1.4 1.2 1.1 1.3 1.6 2.0 2.0
5.3 5.4 5.9 5.6 5.4 5.5 6.4 7.8 8.8 7.6 6.9 6.6 5.6 4.8 5.0 5.5 6.4 8.0 9.6 13.2 16.1 13.6 8.3 8.7 9.3 8.4 10.4 6.6 2.9 2.5 2.1 1.8 1.6 1.3 1.1 1.2 1.7 2.4
6.4 5.1 5.6 5.8 6.0 5.5 5.5 5.0 5.6 6.6 7.3 6.8 6.2 5.2 5.0 5.4 6.3 7.5 9.7 10.9 11.6 11.6 9.0 10.2 14.2 12.3 13.7 11.5 6.8 3.9 3.1 2.3 2.5 2.5 2.3 1.8 1.6 2.0
5.7 6.5 5.9 5.3 5.0 4.1 3.5 4.4 4.4 5.3 6.4 6.9 6.1 5.0 4.7 4.4 5.1 6.4 7.9 9.4 9.7 9.8 8.5 8.0 10.6 10.8 13.7 14.4 9.5 6.2 4.9 3.8 3.2 3.6 3.3 3.1 2.7 2.7
5.0 5.2 5.2 4.2 3.6 3.1 3.0 3.4 4.0 5.0 6.7 7.2 6.1 4.8 4.3 4.8 5.7 6.6 8.2 9.6 11.8 11.2 9.6 7.9 7.8 10.4 12.9 11.0 10.5 8.6 6.6 6.5 5.0 4.4 3.9 3.8 3.4 2.7
8.2 8.0 6.6 5.4 4.8 4.3 3.8 3.5 3.9 4.8 5.6 5.8 6.2 6.4 6.1 5.9 6.3 6.8 8.5 10.4 12.4 12.2 11.7 10.7 10.4 10.9 12.2 12.7 12.6 9.6 7.3 6.4 5.8 5.9 5.4 5.2 4.1 3.7
8.3 9.1 7.0 5.9 5.6 5.2 4.8 4.6 4.3 5.0 5.4 5.8 6.3 6.8 7.3 7.1 7.4 7.2 9.0 11.0 12.3 11.9 12.0 12.0 13.4 15.4 15.9 15.5 13.2 10.8 8.5 6.8 6.1 6.1 6.0 6.8 5.7 4.1
6.9 7.0 6.0 5.9 5.7 5.8 5.7 5.6 5.4 5.2 5.6 6.5 6.8 7.1 7.7 8.4 8.6 8.4 8.7 10.0 11.0 11.2 11.7 12.4 14.8 19.6 22.8 19.6 13.9 11.0 10.3 8.3 7.4 6.8 6.0 6.6 7.1 5.4
4.9 5.9 5.9 5.6 6.4 6.4 6.3 6.1 5.8 5.7 6.1 6.6 6.9 6.8 7.5 8.9 9.3 9.0 9.2 10.3 11.3 11.9 12.4 12.6 15.0 18.3 22.4 19.7 16.6 13.9 9.5 10.0 9.7 9.1 7.0 6.1 5.5 4.5
5.4 5.6 5.7 6.1 6.5 6.3 6.5 6.5 6.8 6.7 6.4 6.7 6.9 6.7 7.2 9.1 9.3 8.5 9.0 10.0 12.0 13.5 13.6 13.4 12.3 13.7 16.6 18.6 20.3 17.9 14.7 9.9 8.4 10.3 10.2 10.1 9.5 8.1
5.8 6.1 5.8 5.8 6.0 6.4 6.6 6.6 6.9 6.4 6.3 6.7 6.9 6.9 7.4 8.6 9.1 9.0 9.6 10.9 11.8 12.3 12.7 12.7 11.9 15.0 19.8 22.4 20.6 17.4 16.6 14.0 12.2 8.4 8.1 9.7 13.9 14.7
7.0 7.0 6.3 5.9 6.1 6.3 6.6 6.6 6.8 6.2 6.2 6.6 7.1 7.4 7.7 8.7 8.9 9.5 9.9 10.4 11.4 11.7 12.3 13.2 14.1 16.4 18.9 19.0 19.5 18.0 16.3 13.9 13.6 13.3 13.4 7.2 6.1 6.5